Home > Weather > Tuzla > Past weeks

Flag for Bosnia-Herzegovina Weather for the Past 2 Weeks in Tuzla, Bosnia-Herzegovina

Now
48 °F

Fog.


Feels Like: 48 °F
Forecast: 38 / 64 °F
Wind: 2 mph from North

Location: Tuzla

Current Time: Apr 30, 2016 at 12:25:14 AM

Latest Report: Apr 29, 2016 at 10:00 PM


Visibility: 3 mi

Pressure: 30.12 "Hg

Humidity: 100%

Dew Point: 48 °F

Location of TuzlaLocation

Historic Weather in Tuzla — Graph

°F

Tuzla Temperature Yesterday

Maximum temperature yesterday: 50 °F (at 3:30 PM)
Minimum temperature yesterday: 45 °F (at 9:00 AM)
Average temperature yesterday: 48 °F

High & Low Weather Summary for the Past Weeks

 TemperatureHumidityPressure
High86 °F (Apr 17, 2:00 PM)100% (Apr 15, 6:00 AM)30.36 "Hg (Apr 15, 6:00 AM)
Low30 °F (Apr 21, 5:30 AM)16% (Apr 17, 4:00 PM)29.53 "Hg (Apr 24, 6:30 AM)
Average56 °F65%29.94 "Hg
* Reported Apr 15 6:00 AM — Apr 29 10:00 PM, Tuzla, Weather by CustomWeather, © 2016

Note: Actual official high and low records may vary slightly from our data, if they occured in-between our weather recording intervals... More about our weather records

Advertising

Tuzla Weather History for the Previous 24 Hours

Scroll right to see more
 ConditionsComfort  
Time TempWeatherWind HumidityBarometerVisibility
10:00 PM
Fri, Apr 29
48 °FFog.2 mph100%30.12 "Hg3 mi
9:30 PM48 °FMostly cloudy.2 mph100%30.12 "Hg4 mi
9:00 PM48 °FOvercast.2 mph100%30.12 "Hg4 mi
8:00 PM48 °FOvercast.3 mph100%30.12 "HgN/A
7:00 PM48 °FOvercast.5 mph100%30.09 "HgN/A
6:30 PM48 °FOvercast.3 mph100%30.09 "HgN/A
6:00 PM48 °FOvercast.5 mph100%30.09 "HgN/A
5:30 PM48 °FMostly cloudy.6 mph94%30.09 "HgN/A
5:00 PM50 °FMostly cloudy.6 mph88%30.09 "HgN/A
4:30 PM50 °FMostly cloudy.5 mph88%30.09 "HgN/A
4:00 PM48 °FMostly cloudy.3 mph94%30.09 "HgN/A
3:30 PM50 °FCloudy.6 mph88%30.09 "HgN/A
3:00 PM48 °FCloudy.6 mph100%30.09 "HgN/A
2:30 PM48 °FCloudy.7 mph100%30.09 "HgN/A
2:00 PM48 °FCloudy.7 mph100%30.09 "HgN/A
1:30 PM48 °FMostly cloudy.6 mph100%30.09 "HgN/A
1:00 PM48 °FMostly cloudy.7 mph100%30.09 "HgN/A
12:30 PM48 °FMostly cloudy.6 mph100%30.09 "HgN/A
12:00 PM46 °FMostly cloudy.6 mph100%30.09 "Hg4 mi
11:30 AM46 °FMostly cloudy.6 mph100%30.09 "Hg4 mi
11:00 AM46 °FDrizzle. Fog.7 mph100%30.09 "Hg2 mi
10:00 AM46 °FLight rain. Fog.7 mph100%30.09 "Hg1 mi
9:00 AM45 °FFog.8 mph100%30.07 "Hg1 mi
8:00 AM46 °FLight rain. Fog.7 mph100%30.07 "Hg2 mi
7:00 AM46 °FLight rain. Fog.6 mph100%30.07 "Hg1 mi
6:30 AM46 °FLight rain. Fog.8 mph100%30.04 "Hg1 mi
Weather by CustomWeather, © 2016

See weather overviewHow to use our weather pages